EW3244 Weather Reports


time (UTC)temp
C
wind
direction
speed
KPH
gust
KPH
rain 1hr
cm
rain 24hr
cm
rain mn
cm
humidity
%
barometer
mb
20260505204531 1 84 0.0 0.0 0.00 0.00 0.00 64 1010.1
20260505203027 1 84 0.0 1.6 0.00 0.00 0.00 61 1009.9
20260505201519 2 84 0.0 1.6 0.00 0.00 0.00 60 1009.9
20260505200016 3 84 0.0 1.6 0.00 0.00 0.00 52 1009.7
20260505194513 4 84 0.0 0.0 0.00 0.00 0.00 47 1009.6
20260505193010 5 84 0.0 0.0 0.00 0.00 0.00 46 1009.4
20260505191506 5 84 0.0 0.0 0.00 0.00 0.00 45 1009.4
20260505190004 6 84 0.0 4.8 0.00 0.00 0.00 41 1009.3
20260505184502 7 84 0.0 4.8 0.00 0.00 0.00 38 1009.1
20260505183059 8 84 0.0 4.8 0.00 0.00 0.00 38 1008.9
20260505181557 8 86 3.2 11.3 0.00 0.00 0.00 37 1008.7
20260505180055 8 95 6.4 12.9 0.00 0.00 0.00 35 1008.6
20260505174554 9 97 4.8 11.3 0.00 0.00 0.00 36 1008.4
20260505173052 10 78 4.8 12.9 0.00 0.00 0.00 34 1008.4
20260505171552 10 1 4.8 14.5 0.00 0.00 0.00 33 1008.3
20260505170050 10 75 9.7 17.7 0.00 0.00 0.00 34 1008.2
20260505164549 10 80 4.8 17.7 0.00 0.00 0.00 34 1008.2
20260505163048 10 114 6.4 14.5 0.00 0.00 0.00 34 1008.1
20260505161546 10 73 6.4 14.5 0.00 0.00 0.00 35 1008.1
20260505153047 10 88 6.4 14.5 0.00 0.00 0.00 34 1008.0
20260505151541 10 93 6.4 16.1 0.00 0.00 0.00 33 1008.0
20260505124524 10 99 8.0 19.3 0.00 0.00 0.00 37 1008.1
20260505123022 10 154 6.4 19.3 0.00 0.00 0.00 39 1008.1
20260505121520 10 72 9.7 25.7 0.00 0.00 0.00 38 1008.0
20260505120033 10 109 9.7 24.1 0.00 0.00 0.00 39 1007.9
20260505114517 9 71 16.1 29.0 0.00 0.00 0.00 37 1007.9
20260505113016 9 104 11.3 29.0 0.00 0.00 0.00 43 1008.0
20260505111523 9 47 14.5 22.5 0.00 0.00 0.00 39 1007.9
20260505101508 8 108 11.3 25.7 0.00 0.00 0.00 44 1007.7
20260505100007 8 59 12.9 30.6 0.00 0.00 0.00 44 1007.6
20260505094506 8 107 12.9 27.4 0.00 0.00 0.00 44 1007.7
20260505093004 8 77 19.3 27.4 0.00 0.00 0.00 43 1007.5
20260505091501 8 90 16.1 30.6 0.00 0.00 0.00 47 1007.4
20260505090123 8 73 12.9 25.7 0.00 0.00 0.00 49 1007.3
20260505084615 8 90 16.1 30.6 0.00 0.00 0.00 50 1007.2
20260505083110 7 70 14.5 25.7 0.00 0.00 0.00 51 1007.1
20260505081601 7 72 16.1 27.4 0.00 0.00 0.00 51 1007.0
20260505080100 7 42 16.1 25.7 0.00 0.00 0.00 54 1006.8
20260505074552 7 100 14.5 27.4 0.00 0.00 0.00 56 1006.8
20260505073055 7 60 11.3 32.2 0.00 0.00 0.00 55 1006.7
20260505071554 7 85 14.5 24.1 0.00 0.00 0.00 58 1006.6
20260505070051 7 88 14.5 20.9 0.00 0.00 0.00 63 1006.4
20260505064645 7 94 6.4 20.9 0.00 0.00 0.00 63 1006.4
20260505063051 6 96 12.9 22.5 0.00 0.00 0.00 62 1006.4
20260505061542 6 63 11.3 20.9 0.00 0.00 0.00 61 1006.3
20260505060056 6 71 14.5 19.3 0.00 0.00 0.00 61 1006.2
20260505054540 6 83 8.0 17.7 0.00 0.00 0.00 62 1006.0
20260505053039 6 66 12.9 19.3 0.00 0.00 0.00 63 1006.0
20260505051537 6 108 8.0 17.7 0.00 0.00 0.00 64 1005.9
20260505041541 6 85 6.4 17.7 0.00 0.13 0.00 83 1005.3
20260505040030 6 76 8.0 16.1 0.00 0.33 0.00 83 1005.1
20260505034527 6 56 11.3 20.9 0.00 0.33 0.00 83 1005.0
20260505033027 6 78 8.0 17.7 0.00 0.33 0.00 83 1004.9
20260505031525 6 66 9.7 27.4 0.00 0.33 0.00 83 1004.9
20260505030024 6 33 8.0 20.9 0.00 0.58 0.00 83 1004.9
20260505024523 6 71 12.9 22.5 0.00 0.58 0.00 83 1004.8
20260505023022 6 53 9.7 19.3 0.00 0.58 0.00 83 1004.8
20260505021519 6 52 11.3 19.3 0.00 0.58 0.00 83 1004.7
20260505020023 6 43 11.3 20.9 0.00 0.61 0.00 82 1004.7
20260505014530 6 55 9.7 24.1 0.00 0.61 0.00 82 1004.7
20260505013014 6 66 16.1 22.5 0.00 0.61 0.00 81 1004.7
20260505011512 6 47 11.3 29.0 0.00 0.61 0.00 80 1004.6
20260505010010 6 66 12.9 25.7 0.00 0.61 0.00 80 1004.7
20260505004510 6 33 12.9 30.6 0.00 0.61 0.00 79 1004.6
20260505003007 6 52 12.9 20.9 0.00 0.61 0.00 78 1004.7
20260505001505 7 64 14.5 22.5 0.00 0.61 0.00 78 1004.6
20260505000004 7 36 14.5 29.0 0.00 0.61 0.00 77 1004.5
20260504234601 7 71 11.3 24.1 0.00 0.61 0.00 76 1004.6
20260504233100 7 45 12.9 19.3 0.00 0.61 0.00 74 1004.6
20260504231555 7 60 14.5 24.1 0.00 0.61 0.00 73 1004.6
20260504230053 7 29 14.5 20.9 0.00 0.61 0.00 71 1004.6
20260504224550 7 64 11.3 20.9 0.00 0.61 0.00 68 1004.7
20260504223100 7 50 14.5 22.5 0.00 0.61 0.00 66 1004.6
20260504221545 7 43 9.7 19.3 0.00 0.61 0.00 63 1004.7
20260504220041 7 34 12.9 22.5 0.00 0.61 0.61 61 1004.7
20260504214539 8 53 8.0 14.5 0.00 0.61 0.61 58 1004.7
20260504213038 8 50 8.0 20.9 0.00 0.61 0.61 56 1004.8
20260504211556 8 41 8.0 14.5 0.00 0.61 0.61 55 1004.7
20260504210042 8 40 6.4 11.3 0.00 0.61 0.61 54 1004.7